EW6851 Weather Reports


Display with metric or nautical units.
time (UTC)temp
F
wind
direction
speed
MPH
gust
MPH
rain 1hr
in
rain 24hr
in
rain mn
in
humidity
%
barometer
mb
20260901135641 89 351 10.0 10.0 0.00 0.00 0.00 57 1016.5
20260901135144 89 17 2.0 8.0 0.00 0.00 0.00 57 1016.4
20260901134644 89 324 4.0 11.0 0.00 0.00 0.00 57 1016.4
20260901134147 89 328 4.0 10.0 0.00 0.00 0.00 56 1016.4
20260901133641 89 314 7.0 11.0 0.00 0.00 0.00 55 1016.3
20260901133144 89 297 7.0 10.0 0.00 0.00 0.00 53 1016.4
20260901132641 89 298 6.0 9.0 0.00 0.00 0.00 54 1016.4
20260901132144 89 296 8.0 9.0 0.00 0.00 0.00 55 1016.3
20260901131641 89 302 4.0 8.0 0.00 0.00 0.00 52 1016.3
20260901131147 89 240 3.0 10.0 0.00 0.00 0.00 51 1016.4
20260901130644 89 350 5.0 9.0 0.00 0.00 0.00 51 1016.4
20260901130144 89 330 4.0 8.0 0.00 0.00 0.00 52 1016.4
20260901125644 89 324 7.0 9.0 0.00 0.00 0.00 52 1016.4
20260901125141 89 339 5.0 10.0 0.00 0.00 0.00 51 1016.4
20260901124641 90 294 6.0 9.0 0.00 0.00 0.00 50 1016.5
20260901124147 90 296 8.0 10.0 0.00 0.00 0.00 50 1016.5
20260901123647 90 253 7.0 7.0 0.00 0.00 0.00 49 1016.5
20260901123144 90 320 3.0 8.0 0.00 0.00 0.00 49 1016.5
20260901122641 90 298 7.0 11.0 0.00 0.00 0.00 48 1016.6
20260901122141 90 325 3.0 8.0 0.00 0.00 0.00 49 1016.5
20260901121647 90 302 4.0 8.0 0.00 0.00 0.00 47 1016.6
20260901121144 90 5 4.0 9.0 0.00 0.00 0.00 45 1016.7
20260901120641 90 333 2.0 10.0 0.00 0.00 0.00 49 1016.7
20260901120144 90 304 8.0 10.0 0.00 0.00 0.00 48 1016.7
20260901115644 90 335 6.0 9.0 0.00 0.00 0.00 47 1016.6
20260901115142 90 304 6.0 9.0 0.00 0.00 0.00 47 1016.6
20260901114642 90 259 4.0 8.0 0.00 0.00 0.00 47 1016.6
20260901114144 90 333 2.0 10.0 0.00 0.00 0.00 48 1016.6
20260901113644 90 296 2.0 9.0 0.00 0.00 0.00 49 1016.6
20260901113144 90 287 4.0 9.0 0.00 0.00 0.00 49 1016.6
20260901112644 90 309 4.0 6.0 0.00 0.00 0.00 48 1016.6
20260901112144 89 295 2.0 8.0 0.00 0.00 0.00 48 1016.6
20260901111651 89 304 2.0 10.0 0.00 0.00 0.00 50 1016.6
20260901111141 89 336 2.0 8.0 0.00 0.00 0.00 51 1016.6
20260901110641 89 286 3.0 7.0 0.00 0.00 0.00 51 1016.6
20260901110147 88 307 6.0 11.0 0.00 0.00 0.00 52 1016.6
20260901105644 88 317 5.0 7.0 0.00 0.00 0.00 52 1016.7
20260901105142 88 301 8.0 10.0 0.00 0.00 0.00 53 1016.7
20260901104644 88 5 2.0 10.0 0.00 0.00 0.00 53 1016.7
20260901104144 88 338 3.0 9.0 0.00 0.00 0.00 54 1016.7
20260901103641 88 348 5.0 7.0 0.00 0.00 0.00 56 1016.7
20260901103141 88 258 3.0 9.0 0.00 0.00 0.00 56 1016.8
20260901102641 87 299 1.0 8.0 0.00 0.00 0.00 57 1016.7
20260901102141 87 285 3.0 9.0 0.00 0.00 0.00 57 1016.8
20260901101641 87 28 9.0 11.0 0.00 0.00 0.00 59 1016.9
20260901101141 87 304 9.0 10.0 0.00 0.00 0.00 59 1016.9
20260901100641 87 304 6.0 10.0 0.00 0.00 0.00 60 1016.9
20260901100147 87 279 8.0 9.0 0.00 0.00 0.00 60 1016.9
20260901095644 87 346 3.0 9.0 0.00 0.00 0.00 60 1016.8
20260901095147 87 288 6.0 10.0 0.00 0.00 0.00 59 1016.9
20260901094645 88 302 6.0 9.0 0.00 0.00 0.00 59 1016.8
20260901094141 87 294 5.0 7.0 0.00 0.00 0.00 60 1016.9
20260901093644 87 19 3.0 9.0 0.00 0.00 0.00 61 1016.9
20260901093141 87 261 6.0 6.0 0.00 0.00 0.00 62 1016.9
20260901092641 87 57 3.0 12.0 0.00 0.00 0.00 61 1016.9
20260901092144 87 327 2.0 8.0 0.00 0.00 0.00 62 1016.8
20260901091647 87 238 6.0 11.0 0.00 0.00 0.00 61 1016.9
20260901091144 87 336 4.0 12.0 0.00 0.00 0.00 61 1016.8
20260901090647 87 275 6.0 9.0 0.00 0.00 0.00 61 1016.8
20260901090141 87 313 5.0 9.0 0.00 0.00 0.00 61 1016.7
20260901085641 86 250 4.0 9.0 0.00 0.00 0.00 62 1016.9
20260901085147 86 265 5.0 8.0 0.00 0.00 0.00 63 1016.8
20260901084644 86 27 2.0 9.0 0.00 0.00 0.00 63 1016.9
20260901084144 86 267 4.0 8.0 0.00 0.00 0.00 63 1016.9
20260901083644 86 309 4.0 7.0 0.00 0.00 0.00 64 1016.9
20260901083141 85 229 2.0 8.0 0.00 0.00 0.00 65 1016.9
20260901082641 85 279 5.0 8.0 0.00 0.00 0.00 66 1016.8
20260901082141 85 296 7.0 7.0 0.00 0.00 0.00 66 1016.7
20260901081641 85 5 2.0 5.0 0.00 0.00 0.00 66 1016.7
20260901081141 85 303 3.0 7.0 0.00 0.00 0.00 66 1016.7
20260901080641 85 355 2.0 9.0 0.00 0.00 0.00 67 1016.7
20260901080141 84 340 5.0 7.0 0.00 0.00 0.00 68 1016.6
20260901075647 84 298 2.0 6.0 0.00 0.00 0.00 68 1016.6
20260901075141 84 284 5.0 5.0 0.00 0.00 0.00 68 1016.6
20260901074642 84 302 4.0 8.0 0.00 0.00 0.00 68 1016.6
20260901074141 84 262 2.0 8.0 0.00 0.00 0.00 68 1016.6
20260901073641 84 263 5.0 7.0 0.00 0.00 0.00 68 1016.6
20260901073142 84 259 3.0 10.0 0.00 0.00 0.00 68 1016.6
20260901072642 84 308 9.0 9.0 0.00 0.00 0.00 68 1016.5
20260901072145 84 298 4.0 8.0 0.00 0.00 0.00 68 1016.5
20260901071644 84 298 2.0 9.0 0.00 0.00 0.00 68 1016.5
20260901071145 84 308 6.0 8.0 0.00 0.00 0.00 70 1016.4
20260901070645 84 269 1.0 5.0 0.00 0.00 0.00 70 1016.4
20260901070141 84 297 5.0 5.0 0.00 0.00 0.00 70 1016.4
20260901065645 83 308 5.0 7.0 0.00 0.00 0.00 70 1016.4
20260901065148 83 291 4.0 4.0 0.00 0.00 0.00 69 1016.4
20260901064651 84 295 0.0 2.0 0.00 0.00 0.00 69 1016.4
20260901064148 84 295 0.0 3.0 0.00 0.00 0.00 69 1016.4
20260901063642 84 295 1.0 4.0 0.00 0.00 0.00 69 1016.4
20260901063145 84 313 0.0 3.0 0.00 0.00 0.00 69 1016.4
20260901062651 84 204 2.0 4.0 0.00 0.00 0.00 69 1016.4
20260901062142 84 285 3.0 5.0 0.00 0.00 0.00 69 1016.4
20260901061642 83 256 0.0 3.0 0.00 0.00 0.00 69 1016.3
20260901061146 83 207 1.0 3.0 0.00 0.00 0.00 69 1016.4
20260901060648 83 207 1.0 3.0 0.00 0.00 0.00 69 1016.5
20260901060142 83 207 0.0 3.0 0.00 0.00 0.00 68 1016.4
20260901055642 83 229 2.0 3.0 0.00 0.00 0.00 69 1016.5
20260901055142 82 121 0.0 2.0 0.00 0.00 0.00 71 1016.4
20260901054645 81 153 1.0 2.0 0.00 0.00 0.00 72 1016.5
20260901054142 81 153 1.0 3.0 0.00 0.00 0.00 73 1016.4
20260901053642 80 153 0.0 3.0 0.00 0.00 0.00 73 1016.4
20260901053142 80 140 2.0 4.0 0.00 0.00 0.00 74 1016.4
20260901052642 79 130 3.0 5.0 0.00 0.00 0.00 75 1016.4
20260901052145 79 159 4.0 4.0 0.00 0.00 0.00 75 1016.4
20260901051645 79 171 2.0 3.0 0.00 0.00 0.00 75 1016.3
20260901051145 79 141 1.0 4.0 0.00 0.00 0.00 76 1016.3
20260901050648 78 130 3.0 3.0 0.00 0.00 0.00 76 1016.2
20260901050145 78 157 0.0 3.0 0.00 0.00 0.00 76 1016.2
20260901045645 78 167 3.0 3.0 0.00 0.00 0.00 76 1016.1
20260901045142 78 158 1.0 4.0 0.00 0.00 0.00 76 1016.1
20260901044642 78 160 0.0 4.0 0.00 0.00 0.00 76 1016.0
20260901044148 78 150 1.0 5.0 0.00 0.00 0.00 76 1015.9
20260901043642 78 158 3.0 5.0 0.00 0.00 0.00 76 1015.9
20260901043145 78 132 3.0 4.0 0.00 0.00 0.00 76 1015.9
20260901042642 78 167 1.0 4.0 0.00 0.00 0.00 76 1015.9
20260901042145 78 149 2.0 4.0 0.00 0.00 0.00 76 1015.9
20260901041642 79 165 3.0 5.0 0.00 0.00 0.00 76 1015.9
20260901041142 79 138 0.0 5.0 0.00 0.00 0.00 76 1015.8
20260901040642 79 187 1.0 4.0 0.00 0.00 0.00 76 1015.8
20260901040142 79 181 1.0 3.0 0.00 0.00 0.00 75 1015.8
20260901035645 79 146 1.0 5.0 0.00 0.00 0.00 75 1015.8
20260901035145 79 169 3.0 5.0 0.00 0.00 0.00 75 1015.8
20260901034646 79 165 0.0 5.0 0.00 0.00 0.00 75 1015.9
20260901034145 79 180 0.0 3.0 0.00 0.00 0.00 75 1015.9
20260901033642 79 169 3.0 4.0 0.00 0.00 0.00 75 1015.9
20260901033142 79 176 0.0 4.0 0.00 0.00 0.00 75 1015.9
20260901032648 79 161 0.0 4.0 0.00 0.00 0.00 76 1016.0
20260901032142 79 139 1.0 4.0 0.00 0.00 0.00 76 1016.1
20260901031642 79 134 3.0 4.0 0.00 0.00 0.00 76 1016.1
20260901031142 79 157 0.0 4.0 0.00 0.00 0.00 76 1016.1
20260901030645 79 84 0.0 7.0 0.00 0.00 0.00 76 1016.1
20260901030148 79 145 0.0 5.0 0.00 0.00 0.00 76 1016.1
20260901025651 79 146 1.0 4.0 0.00 0.00 0.00 76 1016.2
20260901025145 79 171 3.0 6.0 0.00 0.00 0.00 76 1016.2
20260901024642 79 154 3.0 5.0 0.00 0.00 0.00 76 1016.2
20260901024142 80 147 1.0 5.0 0.00 0.00 0.00 76 1016.1
20260901023642 80 181 3.0 5.0 0.00 0.00 0.00 76 1016.2
20260901023142 80 139 1.0 4.0 0.00 0.00 0.00 75 1016.1
20260901022642 80 159 4.0 5.0 0.00 0.00 0.00 75 1016.2
20260901022142 80 142 3.0 4.0 0.00 0.00 0.00 75 1016.1
20260901021642 80 173 0.0 2.0 0.00 0.00 0.00 75 1016.1
20260901021145 80 182 1.0 3.0 0.00 0.00 0.00 75 1016.2
20260901020645 81 194 1.0 3.0 0.00 0.00 0.00 75 1016.1
20260901020147 81 193 1.0 3.0 0.00 0.00 0.00 75 1016.1
20260901015641 81 221 0.0 3.0 0.00 0.00 0.00 75 1016.1
20260901015141 81 202 0.0 4.0 0.00 0.00 0.00 75 1016.2
20260901014641 81 189 2.0 4.0 0.00 0.00 0.00 75 1016.2
20260901014141 81 199 1.0 3.0 0.00 0.00 0.00 76 1016.1
20260901013642 81 192 3.0 3.0 0.00 0.00 0.00 76 1016.2
20260901013141 81 189 0.0 3.0 0.00 0.00 0.00 76 1016.2
20260901012641 81 189 2.0 3.0 0.00 0.00 0.00 77 1016.3
20260901012145 80 171 0.0 1.0 0.00 0.00 0.00 77 1016.3
20260901011641 80 171 0.0 2.0 0.00 0.00 0.00 77 1016.4
20260901011141 80 131 0.0 1.0 0.00 0.00 0.00 78 1016.4
20260901010644 80 184 0.0 1.0 0.00 0.00 0.00 78 1016.3
20260901010141 80 184 0.0 3.0 0.00 0.00 0.00 78 1016.3
20260901005647 80 146 0.0 0.0 0.00 0.00 0.00 78 1016.2
20260901005147 80 136 0.0 0.0 0.00 0.00 0.00 78 1016.2
20260901004641 80 142 0.0 0.0 0.00 0.00 0.00 78 1016.2
20260901004147 80 142 0.0 0.0 0.00 0.00 0.00 78 1016.2
20260901003644 80 163 0.0 0.0 0.00 0.00 0.00 78 1016.1
20260901003142 80 171 0.0 3.0 0.00 0.00 0.00 78 1016.1
20260901002641 80 153 2.0 4.0 0.00 0.00 0.00 78 1016.1
20260901002147 80 168 2.0 5.0 0.00 0.00 0.00 78 1016.1
20260901001647 80 152 3.0 5.0 0.00 0.00 0.00 78 1016.1
20260901001141 80 171 2.0 6.0 0.00 0.00 0.00 78 1016.0
20260901000641 80 153 0.0 6.0 0.00 0.00 0.00 78 1015.9
20260901000141 80 140 6.0 6.0 0.00 0.00 0.00 78 1015.9
20260831235641 80 158 0.0 6.0 0.00 0.00 0.00 78 1015.9
20260831235144 80 121 0.0 5.0 0.00 0.00 0.00 78 1015.8
20260831234650 81 107 2.0 4.0 0.00 0.00 0.00 77 1015.8
20260831234141 81 115 0.0 4.0 0.00 0.00 0.00 77 1015.8
20260831233647 81 173 1.0 3.0 0.00 0.00 0.00 78 1015.8
20260831233141 81 164 0.0 5.0 0.00 0.00 0.00 78 1015.8
20260831232648 81 206 2.0 6.0 0.00 0.00 0.00 77 1015.7
20260831232141 81 173 2.0 5.0 0.00 0.00 0.00 77 1015.8
20260831231641 81 135 3.0 4.0 0.00 0.00 0.00 77 1015.8
20260831231141 81 127 2.0 4.0 0.00 0.00 0.00 76 1015.9
20260831230641 82 173 0.0 4.0 0.00 0.00 0.00 76 1015.8
20260831230141 82 176 1.0 4.0 0.00 0.00 0.00 75 1015.8
20260831225650 82 126 0.0 3.0 0.00 0.00 0.00 75 1015.8
20260831225141 82 147 0.0 3.0 0.00 0.00 0.00 75 1015.8
20260831224641 82 157 0.0 4.0 0.00 0.00 0.00 75 1015.9
20260831224144 82 140 0.0 4.0 0.00 0.00 0.00 75 1015.9
20260831223644 82 159 0.0 3.0 0.00 0.00 0.00 75 1015.9
20260831223141 82 151 1.0 3.0 0.00 0.00 0.00 75 1015.9
20260831222644 83 144 3.0 3.0 0.00 0.00 0.00 75 1015.9
20260831222141 83 157 0.0 2.0 0.00 0.00 0.00 74 1016.0
20260831221647 83 175 1.0 2.0 0.00 0.00 0.00 74 1015.9
20260831221141 83 234 2.0 3.0 0.00 0.00 0.00 73 1016.0
20260831220641 83 5 1.0 4.0 0.00 0.00 0.00 73 1016.0
20260831220141 83 355 2.0 3.0 0.00 0.00 0.00 73 1016.0
20260831215645 83 307 2.0 3.0 0.00 0.00 0.00 73 1016.1
20260831215141 83 65 0.0 1.0 0.00 0.00 0.00 75 1016.1
20260831214641 83 65 0.0 1.0 0.00 0.00 0.00 75 1016.0
20260831214141 83 65 1.0 2.0 0.00 0.00 0.00 74 1016.0
20260831213644 83 65 0.0 2.0 0.00 0.00 0.00 75 1016.0
20260831213150 83 65 1.0 3.0 0.00 0.00 0.00 75 1016.0
20260831212644 83 11 0.0 0.0 0.00 0.00 0.00 75 1016.0
20260831212141 83 10 0.0 4.0 0.00 0.00 0.00 75 1016.0
20260831211641 83 10 3.0 3.0 0.00 0.00 0.00 74 1015.9
20260831211141 83 355 2.0 3.0 0.00 0.00 0.00 74 1015.9
20260831210648 83 19 1.0 3.0 0.00 0.00 0.00 74 1015.9
20260831210141 84 19 0.0 2.0 0.00 0.00 0.00 74 1015.8
20260831205647 84 16 1.0 3.0 0.00 0.00 0.00 74 1015.9
20260831205141 84 17 2.0 3.0 0.00 0.00 0.00 74 1015.8
20260831204641 84 313 0.0 2.0 0.00 0.00 0.00 74 1015.8
20260831204147 84 313 2.0 4.0 0.00 0.00 0.00 73 1015.8
20260831203648 84 5 3.0 4.0 0.00 0.00 0.00 73 1015.8
20260831203141 84 240 1.0 3.0 0.00 0.00 0.00 73 1015.8
20260831202641 84 321 3.0 3.0 0.00 0.00 0.00 73 1015.7
20260831202141 83 301 2.0 3.0 0.00 0.00 0.00 73 1015.7
20260831201641 83 294 1.0 3.0 0.00 0.00 0.00 74 1015.7
20260831201147 83 20 1.0 2.0 0.00 0.00 0.00 75 1015.7
20260831200641 83 20 1.0 2.0 0.00 0.00 0.00 75 1015.6
20260831200141 83 20 0.0 2.0 0.00 0.00 0.00 75 1015.7
20260831195650 83 20 2.0 4.0 0.00 0.00 0.00 75 1015.7
20260831195144 83 348 3.0 4.0 0.00 0.00 0.00 75 1015.7
20260831194647 83 11 3.0 4.0 0.00 0.00 0.00 75 1015.6
20260831194141 83 350 4.0 4.0 0.00 0.00 0.00 75 1015.6
20260831193641 83 347 2.0 4.0 0.00 0.00 0.00 75 1015.6
20260831193141 83 26 3.0 4.0 0.00 0.00 0.00 75 1015.5
20260831192641 83 27 1.0 4.0 0.00 0.00 0.00 75 1015.5
20260831192144 84 34 3.0 5.0 0.00 0.00 0.00 74 1015.5
20260831191641 84 28 4.0 5.0 0.00 0.00 0.00 74 1015.4
20260831191147 84 32 1.0 4.0 0.00 0.00 0.00 74 1015.4
20260831190641 84 339 1.0 4.0 0.00 0.00 0.00 74 1015.4
20260831190141 84 327 3.0 5.0 0.00 0.00 0.00 74 1015.4
20260831185641 84 328 3.0 5.0 0.00 0.00 0.00 74 1015.4
20260831185141 84 355 3.0 4.0 0.00 0.00 0.00 74 1015.5
20260831184641 84 350 3.0 4.0 0.00 0.00 0.00 73 1015.4
20260831184145 84 311 4.0 6.0 0.00 0.00 0.00 73 1015.3
20260831183644 84 278 1.0 5.0 0.00 0.00 0.00 73 1015.3
20260831183147 84 346 1.0 4.0 0.00 0.00 0.00 73 1015.3
20260831182641 84 315 3.0 5.0 0.00 0.00 0.00 73 1015.3
20260831182141 84 286 1.0 5.0 0.00 0.00 0.00 73 1015.2
20260831181641 84 333 3.0 6.0 0.00 0.00 0.00 73 1015.1
20260831181141 84 338 3.0 4.0 0.00 0.00 0.00 73 1015.0
20260831180647 85 321 4.0 6.0 0.00 0.00 0.00 73 1015.0
20260831180141 85 305 3.0 6.0 0.00 0.00 0.00 73 1015.1
20260831175645 85 342 3.0 7.0 0.00 0.00 0.00 73 1015.1
20260831175144 85 328 4.0 5.0 0.00 0.00 0.00 73 1015.0
20260831174641 85 294 2.0 5.0 0.00 0.00 0.00 73 1015.1
20260831174147 85 338 5.0 5.0 0.00 0.00 0.00 73 1015.1
20260831173641 85 311 3.0 7.0 0.00 0.00 0.00 73 1015.1
20260831173141 85 331 4.0 7.0 0.00 0.00 0.00 72 1015.1
20260831172641 85 306 5.0 8.0 0.00 0.00 0.00 72 1015.1
20260831172147 85 299 7.0 7.0 0.00 0.00 0.00 72 1015.2
20260831171644 85 343 3.0 8.0 0.00 0.00 0.00 72 1015.3
20260831171141 85 319 4.0 8.0 0.00 0.00 0.00 72 1015.3
20260831170644 85 296 4.0 7.0 0.00 0.00 0.00 72 1015.2
20260831170147 86 300 4.0 8.0 0.00 0.00 0.00 71 1015.2
20260831165641 86 339 3.0 8.0 0.00 0.00 0.00 71 1015.2
20260831165141 86 314 3.0 7.0 0.00 0.00 0.00 70 1015.2
20260831164644 86 355 1.0 5.0 0.00 0.00 0.00 69 1015.2
20260831164144 86 345 5.0 7.0 0.00 0.00 0.00 69 1015.2
20260831163645 87 309 2.0 6.0 0.00 0.00 0.00 69 1015.3
20260831163147 87 340 6.0 7.0 0.00 0.00 0.00 69 1015.2
20260831162647 87 45 2.0 6.0 0.00 0.00 0.00 68 1015.2
20260831162141 87 322 2.0 9.0 0.00 0.00 0.00 68 1015.2
20260831161644 87 256 1.0 8.0 0.00 0.00 0.00 69 1015.2
20260831161141 87 305 2.0 8.0 0.00 0.00 0.00 67 1015.2
20260831160641 87 355 4.0 6.0 0.00 0.00 0.00 66 1015.1
20260831160145 88 0 4.0 9.0 0.00 0.00 0.00 65 1015.1
20260831155641 88 300 6.0 8.0 0.00 0.00 0.00 65 1015.1
20260831155144 88 43 4.0 8.0 0.00 0.00 0.00 65 1015.1
20260831154641 88 301 3.0 9.0 0.00 0.00 0.00 64 1015.1
20260831154144 88 309 5.0 8.0 0.00 0.00 0.00 65 1015.0
20260831153641 88 221 3.0 8.0 0.00 0.00 0.00 65 1015.1
20260831153144 88 294 6.0 10.0 0.00 0.00 0.00 65 1015.0
20260831152641 87 5 4.0 11.0 0.00 0.00 0.00 64 1015.0
20260831152141 88 46 6.0 11.0 0.00 0.00 0.00 63 1014.9
20260831151641 90 302 6.0 7.0 0.00 0.00 0.00 62 1014.9
20260831151142 89 281 1.0 9.0 0.00 0.00 0.00 61 1014.9
20260831150641 89 289 5.0 9.0 0.00 0.00 0.00 61 1015.0
20260831150147 89 192 1.0 6.0 0.00 0.00 0.00 61 1015.0
20260831145644 89 281 4.0 8.0 0.00 0.00 0.00 61 1015.0
20260831145141 89 282 7.0 8.0 0.00 0.00 0.00 62 1014.9
20260831144645 88 305 5.0 10.0 0.00 0.00 0.00 63 1014.9
20260831144141 88 15 4.0 8.0 0.00 0.00 0.00 62 1014.9
20260831143642 89 348 3.0 10.0 0.00 0.00 0.00 63 1014.9
20260831143145 89 5 4.0 11.0 0.00 0.00 0.00 62 1014.9
20260831142642 90 293 3.0 9.0 0.00 0.00 0.00 60 1014.9
20260831142145 89 294 3.0 9.0 0.00 0.00 0.00 59 1014.9
20260831141648 89 16 4.0 10.0 0.00 0.00 0.00 62 1014.9
20260831141142 89 268 9.0 11.0 0.00 0.00 0.00 62 1015.0
20260831140641 90 15 3.0 8.0 0.00 0.00 0.00 61 1015.0
20260831140145 90 317 2.0 11.0 0.00 0.00 0.00 60 1015.1